Weather History for Glencoe, MN

Change the Weather History Date:

Saturday, June 8, 2013

  Actual Average (KHCD) Record (KHCD)
Temperature  
Mean Temperature 62 °F -  
Max Temperature 70 °F 78 °F 96 °F (1987)
Min Temperature 55 °F 54 °F 38 °F (1978)
Degree Days  
Heating Degree Days 2    
Growing Degree Days 12 (Base 50)    
Moisture  
Dew Point 50 °F    
Average Humidity 63    
Maximum Humidity 84    
Minimum Humidity 41    
Precipitation  
Precipitation 0.00 in - - ()
Sea Level Pressure  
Sea Level Pressure 29.89 in    
Wind  
Wind Speed 5 mph (ESE)    
Max Wind Speed 13 mph    
Max Gust Speed 16 mph    
Visibility 10 miles    
Events Rain    
Averages and records for this station are not official NWS values.
T = Trace of Precipitation, MM = Missing Value Source: NWS Daily Summary

Daily Weather History Graph

Daily Weather History Graph

Search for Another Location

Airport:

Trip Planner

Search our weather history database for the weather conditions in past years. The results will help you decide how hot, cold, wet, or windy it might be!

Date:

Astronomy

Jun. 08, 2013 Rise Set
Actual Time 5:30 AM CDT 9:00 PM CDT
Civil Twilight 4:54 AM CDT 9:37 PM CDT
Nautical Twilight 4:05 AM CDT 10:25 PM CDT
Astronomical Twilight 3:03 AM CDT 11:28 PM CDT
Moon 5:41 AM CDT (6/8) 9:00 PM CDT (6/8)
Length of Visible Light 16h 43m
Length of Day
15h 29m
New Moon, 0% of the Moon is Illuminated
Jun 8
New Moon
Jun 16
First Quarter
Jun 23
Full
Jun 29
Last Quarter
Jul 8
New

Hourly Weather History & Observations

Time (CDT) Temp. Dew Point Humidity Pressure Visibility Wind Dir Wind Speed Gust Speed Precip Events Conditions
12:15 AM 56.7 °F 49.3 °F 76% 29.92 in 10.0 mi ESE 4.6 mph - N/A   Clear
12:35 AM 56.3 °F 49.1 °F 77% 29.92 in 10.0 mi Calm Calm - N/A   Clear
12:54 AM 56.7 °F 49.3 °F 76% 29.92 in 10.0 mi Calm Calm - N/A   Clear
1:15 AM 56.3 °F 49.3 °F 77% 29.92 in 10.0 mi Calm Calm - N/A   Clear
1:34 AM 55.6 °F 49.1 °F 79% 29.91 in 10.0 mi Calm Calm - N/A   Scattered Clouds
1:54 AM 56.7 °F 49.3 °F 76% 29.91 in 10.0 mi Calm Calm - N/A   Scattered Clouds
2:15 AM 56.5 °F 49.3 °F 77% 29.91 in 10.0 mi Calm Calm - N/A   Scattered Clouds
2:34 AM 56.3 °F 49.6 °F 78% 29.91 in 10.0 mi East 3.5 mph - N/A   Mostly Cloudy
2:55 AM 56.5 °F 49.6 °F 78% 29.91 in 10.0 mi ESE 4.6 mph - N/A   Overcast
3:14 AM 55.9 °F 49.6 °F 79% 29.91 in 10.0 mi ESE 3.5 mph - N/A   Overcast
3:34 AM 55.6 °F 50.0 °F 81% 29.90 in 10.0 mi East 3.5 mph - N/A   Overcast
3:55 AM 55.6 °F 50.0 °F 81% 29.90 in 10.0 mi Calm Calm - N/A   Overcast
4:15 AM 56.3 °F 50.0 °F 79% 29.90 in 10.0 mi ESE 5.8 mph - N/A   Overcast
4:34 AM 56.3 °F 50.2 °F 80% 29.90 in 10.0 mi East 4.6 mph - N/A   Overcast
4:55 AM 55.9 °F 50.2 °F 81% 29.90 in 7.0 mi Calm Calm - N/A   Overcast
5:15 AM 55.9 °F 50.0 °F 80% 29.91 in 7.0 mi ESE 3.5 mph - N/A   Overcast
5:35 AM 55.6 °F 50.9 °F 84% 29.90 in 5.0 mi ESE 3.5 mph - N/A   Haze
5:54 AM 55.8 °F 51.1 °F 84% 29.90 in 5.0 mi East 3.5 mph - N/A   Haze
6:15 AM 56.3 °F 51.4 °F 84% 29.89 in 5.0 mi East 4.6 mph - N/A   Haze
6:35 AM 56.3 °F 51.1 °F 83% 29.90 in 5.0 mi Calm Calm - N/A   Haze
6:54 AM 57.4 °F 51.1 °F 79% 29.90 in 7.0 mi East 3.5 mph - N/A   Clear
7:15 AM 59.4 °F 51.4 °F 75% 29.90 in 10.0 mi ESE 4.6 mph - N/A   Clear
7:34 AM 60.4 °F 50.9 °F 71% 29.90 in 10.0 mi SE 4.6 mph - N/A   Clear
7:55 AM 62.1 °F 50.9 °F 67% 29.90 in 10.0 mi SE 4.6 mph - N/A   Clear
8:14 AM 62.2 °F 50.7 °F 66% 29.90 in 10.0 mi SE 5.8 mph - N/A   Clear
8:35 AM 62.8 °F 50.9 °F 65% 29.90 in 10.0 mi SE 3.5 mph - N/A   Clear
8:54 AM 63.7 °F 50.7 °F 63% 29.91 in 10.0 mi SE 5.8 mph - N/A   Clear
9:15 AM 64.4 °F 50.7 °F 61% 29.91 in 10.0 mi SE 5.8 mph - N/A   Clear
9:35 AM 64.8 °F 50.9 °F 61% 29.91 in 10.0 mi SSE 3.5 mph - N/A   Clear
9:54 AM 65.1 °F 50.5 °F 59% 29.91 in 10.0 mi SE 5.8 mph - N/A   Clear
10:15 AM 65.8 °F 50.2 °F 57% 29.90 in 10.0 mi SE 8.1 mph - N/A   Clear
10:34 AM 66.2 °F 50.2 °F 56% 29.90 in 10.0 mi ESE 9.2 mph - N/A   Scattered Clouds
10:55 AM 67.1 °F 49.6 °F 53% 29.90 in 10.0 mi SE 8.1 mph - N/A   Scattered Clouds
11:15 AM 68.2 °F 49.5 °F 51% 29.90 in 10.0 mi ESE 9.2 mph - N/A   Scattered Clouds
11:35 AM 68.4 °F 47.3 °F 47% 29.90 in 10.0 mi SE 9.2 mph - N/A   Scattered Clouds
11:54 AM 68.5 °F 47.5 °F 47% 29.90 in 10.0 mi SE 6.9 mph - N/A   Scattered Clouds
12:15 PM 69.6 °F 47.1 °F 45% 29.90 in 10.0 mi SE 11.5 mph - N/A   Scattered Clouds
12:35 PM 69.1 °F 46.4 °F 44% 29.89 in 10.0 mi ESE 12.7 mph 16.1 mph N/A   Scattered Clouds
12:54 PM 69.4 °F 46.4 °F 44% 29.89 in 10.0 mi SSE 8.1 mph - N/A   Scattered Clouds
1:15 PM 70.2 °F 45.3 °F 41% 29.89 in 10.0 mi SE 9.2 mph - N/A   Scattered Clouds
1:35 PM 68.9 °F 46.9 °F 45% 29.89 in 10.0 mi SSE 6.9 mph - N/A   Mostly Cloudy
1:54 PM 68.9 °F 45.9 °F 44% 29.89 in 10.0 mi SE 10.4 mph - N/A   Scattered Clouds
2:15 PM 68.9 °F 46.2 °F 44% 29.89 in 10.0 mi SE 10.4 mph - N/A   Scattered Clouds
2:35 PM 69.1 °F 47.3 °F 46% 29.89 in 10.0 mi SSE 6.9 mph - N/A   Scattered Clouds
2:55 PM 69.1 °F 46.8 °F 45% 29.89 in 10.0 mi SE 9.2 mph - N/A   Clear
3:14 PM 69.1 °F 47.1 °F 45% 29.89 in 10.0 mi SE 10.4 mph - N/A   Scattered Clouds
3:35 PM 69.1 °F 47.1 °F 45% 29.89 in 10.0 mi SSE 10.4 mph - N/A   Mostly Cloudy
3:55 PM 68.4 °F 48.9 °F 50% 29.89 in 10.0 mi SSE 4.6 mph - N/A   Mostly Cloudy
4:14 PM 67.1 °F 52.3 °F 59% 29.89 in 10.0 mi SSE 6.9 mph - N/A Rain Light Rain
4:35 PM 67.1 °F 52.7 °F 60% 29.89 in 10.0 mi SSE 9.2 mph - N/A Rain Light Rain
4:55 PM 68.0 °F 51.8 °F 56% 29.89 in 10.0 mi SSE 8.1 mph - N/A Rain Light Rain
5:14 PM 66.9 °F 52.2 °F 59% 29.89 in 10.0 mi SSE 6.9 mph - N/A Rain Light Rain
5:35 PM 65.7 °F 54.5 °F 67% 29.90 in 10.0 mi SSE 6.9 mph - N/A Rain Light Rain
5:55 PM 65.3 °F 53.4 °F 65% 29.89 in 10.0 mi SE 10.4 mph - N/A Rain Light Rain
6:14 PM 65.3 °F 52.0 °F 62% 29.89 in 10.0 mi SE 8.1 mph - N/A   Light Drizzle
6:35 PM 65.3 °F 52.3 °F 63% 29.89 in 10.0 mi ESE 9.2 mph - N/A   Light Drizzle
6:55 PM 65.3 °F 51.8 °F 62% 29.88 in 10.0 mi ESE 6.9 mph - N/A   Light Drizzle
7:14 PM 65.3 °F 48.9 °F 55% 29.87 in 10.0 mi ESE 9.2 mph - N/A   Mostly Cloudy
7:35 PM 64.6 °F 48.7 °F 56% 29.87 in 10.0 mi East 6.9 mph - N/A   Mostly Cloudy
7:54 PM 64.6 °F 47.8 °F 55% 29.87 in 10.0 mi East 9.2 mph - N/A   Overcast
8:15 PM 64.4 °F 48.0 °F 55% 29.86 in 10.0 mi East 8.1 mph - N/A   Overcast
8:35 PM 64.2 °F 48.2 °F 56% 29.87 in 10.0 mi East 8.1 mph - N/A   Overcast
8:55 PM 63.9 °F 48.7 °F 58% 29.87 in 10.0 mi East 8.1 mph - N/A   Overcast
9:15 PM 63.5 °F 49.3 °F 60% 29.86 in 10.0 mi East 8.1 mph - N/A   Overcast
9:35 PM 63.7 °F 50.0 °F 61% 29.86 in 10.0 mi East 10.4 mph - N/A   Overcast
9:54 PM 63.9 °F 50.2 °F 61% 29.87 in 10.0 mi East 11.5 mph - N/A   Overcast
10:15 PM 63.9 °F 50.2 °F 61% 29.87 in 10.0 mi East 10.4 mph - N/A   Overcast
10:35 PM 63.1 °F 50.7 °F 64% 29.88 in 10.0 mi East 9.2 mph - N/A   Overcast
10:54 PM 63.0 °F 50.5 °F 64% 29.88 in 10.0 mi East 6.9 mph - N/A   Overcast
11:15 PM 62.6 °F 50.9 °F 66% 29.87 in 10.0 mi ESE 8.1 mph - N/A   Overcast
11:35 PM 61.9 °F 50.9 °F 67% 29.87 in 10.0 mi East 8.1 mph - N/A   Overcast
11:54 PM 61.7 °F 50.9 °F 68% 29.87 in 10.0 mi East 8.1 mph - N/A   Mostly Cloudy